STARLINK-1662 (46369 NORAD) Tracking and Keplerian Element Data

This shows tracking and keplerian element data for the satellite.

Feedback or suggestion? Click here.




ElementValue
Catalog46369
NameSTARLINK-1662
Epoch Orbit178
Epoch Day268.91668981
Epoch Year2020
RAAN324.5106
Inclination53.0007
Eccentricity0.0001157
Argument of Perigee50.2914
Mean Anonmoly155.9741
Mean Motion15.62757154
Decay Rate0.00023327
L11 46369U 20062AW 20268.91668981 .00023327 00000-0 25981-3 0 9999
L22 46369 53.0007 324.5106 0001157 50.2914 155.9741 15.62757154 1782

Live tracking and technical data element details for STARLINK-1662 (NORAD 46369). STARLINK-1662 can be tracked NOW for your location showing map with azimuth and elevation plus other details from your city location.

Track the satellite on the map from your city or location and see movement details for azimuth, elevation, latitude, longitude, range, height, and movement on the map or in text.







IsCatalogInMostPopularTable: catalog: 46369, numindb: 2
Update: records affected: 1



GetName: 46369 STARLINK-1662

Hit Count: updated at: Sat, 26 Sep 2020 15:41:01 GMT